Hourly Data Report for October 05, 2017

All times are specified in Local Standard Time (LST). Add 1 hour to adjust for Daylight Saving Time where and when it is observed.

WEST VANCOUVER AUT
BRITISH COLUMBIA

49°20'49.350" N
123°11'35.910" W
170.20 m
1108824
71784
WWA

Download Data

Hourly Data (October 2017)
Hourly Data Report for October 5, 2017
Temp Definition
°C
Dew Point Temp Definition
°C
Rel Hum Definition
%
Wind Dir Definition
10's deg

Wind Spd Definition
km/h
Visibility Definition
km
Stn Press Definition
kPa
Hmdx Definition


Wind Chill Definition


Weather Definition


TIME
00:00 10.9 1.0 50 2 3   100.13     LegendNANA
01:00 10.4 1.7 55 2 2   100.13     LegendNANA
02:00 10.2 1.0 53 2 3   100.14     LegendNANA
03:00 9.4 1.6 58 0 1   100.16     LegendNANA
04:00 9.3 2.0 60 2 3   100.19     LegendNANA
05:00 9.3 2.4 62 2 2   100.18     LegendNANA
06:00 9.6 2.1 59 2 3   100.17     LegendNANA
07:00 9.3 2.6 63   0   100.21     LegendNANA
08:00 10.8 4.0 63 0 1   100.22     LegendNANA
09:00 13.0 5.1 59 20 1   100.22     LegendNANA
10:00 14.8 4.4 50 21 3   100.21     LegendNANA
11:00 15.5 4.5 48 19 3   100.21     LegendNANA
12:00 13.4 7.0 65 18 4   100.18     LegendNANA
13:00 15.9 6.4 53 23 3   100.12     LegendNANA
14:00 15.7 4.9 49 19 3   100.08     LegendNANA
15:00 17.4 1.8 35 25 3   100.01     LegendNANA
16:00 16.9 3.2 40 26 2   99.98     LegendNANA
17:00 13.8 3.1 48   0   99.97     LegendNANA
18:00 12.4 5.0 61 0 1   99.96     LegendNANA
19:00 11.8 1.7 50 2 3   99.96     LegendNANA
20:00 11.4 1.8 52 3 2   99.96     LegendNANA
21:00 11.0 1.7 53 2 3   99.95     LegendNANA
22:00 10.9 2.0 54 1 3   99.95     LegendNANA
23:00 11.2 2.7 56 2 4   99.93     LegendNANA

Notes on Data Quality.

Legend

  • E = Estimated
  • M = Missing
  • NA = Not Available
  • ‡ = Partner data that is not subject to review by the National Climate Archives
Date modified: